Prairie Du Chien, WI

10:03 PM CST on November 21, 2017 (GMT -0600)
Prairie Du Chien Municipal

Weather History for KPDC - October, 2013

Change the Weather History Date:

Sunday, October 13, 2013

  Actual Average Record
Temperature  
Mean Temperature 48 °F -  
Max Temperature 61 °F 62 °F 90 °F (1975)
Min Temperature 35 °F 39 °F 23 °F (1988)
Degree Days  
Heating Degree Days 17    
Moisture  
Dew Point 35 °F    
Average Humidity 66    
Maximum Humidity 92    
Minimum Humidity 30    
Precipitation  
Precipitation 0.00 in - - ()
Sea Level Pressure  
Sea Level Pressure 30.36 in    
Wind  
Wind Speed 1 mph (NW)    
Max Wind Speed 7 mph    
Max Gust Speed -    
Visibility 10 miles    
Events      
Averages and records for this station are not official NWS values.
T = Trace of Precipitation, MM = Missing Value Source: NWS Daily Summary

Daily Weather History Graph

Daily Weather History Graph

Search for Another Location

Airport or City:

Trip Planner

Search our weather history database for the weather conditions in past years. The results will help you decide how hot, cold, wet, or windy it might be!

Date:

Astronomy

Oct. 13, 2013 Rise Set
Actual Time 7:15 AM CDT 6:24 PM CDT
Civil Twilight 6:47 AM CDT 6:53 PM CDT
Nautical Twilight 6:14 AM CDT 7:25 PM CDT
Astronomical Twilight 5:41 AM CDT 7:58 PM CDT
Moon 3:23 PM CDT (10/13) 1:17 AM CDT (10/13)
Length of Visible Light 12h 05m
Length of Day
11h 08m
Waxing Gibbous, 69% of the Moon is Illuminated
Oct 13
Waxing Gibbous
Oct 18
Full
Oct 26
Last Quarter
Nov 3
New
Nov 9
First Quarter

Hourly Weather History & Observations

Time (CDT) Temp. Dew Point Humidity Pressure Visibility Wind Dir Wind Speed Gust Speed Precip Events Conditions
12:15 AM 45.9 °F 34.5 °F 65% 30.21 in 10.0 mi Calm Calm - N/A   Clear
12:35 AM 45.9 °F 34.7 °F 65% 30.22 in 10.0 mi Calm Calm - N/A   Clear
12:55 AM 43.7 °F 36.1 °F 75% 30.23 in 10.0 mi Calm Calm - N/A   Clear
1:15 AM 44.1 °F 35.8 °F 73% 30.24 in 10.0 mi Calm Calm - N/A   Clear
1:35 AM 42.1 °F 36.5 °F 81% 30.24 in 10.0 mi Calm Calm - N/A   Clear
1:55 AM 41.9 °F 36.3 °F 81% 30.25 in 10.0 mi Calm Calm - N/A   Clear
2:15 AM 40.5 °F 36.1 °F 85% 30.25 in 10.0 mi Calm Calm - N/A   Clear
2:35 AM 41.2 °F 36.5 °F 83% 30.26 in 10.0 mi Calm Calm - N/A   Clear
2:55 AM 40.1 °F 36.0 °F 85% 30.26 in 10.0 mi Calm Calm - N/A   Clear
3:15 AM 39.2 °F 35.6 °F 87% 30.26 in 10.0 mi Calm Calm - N/A   Clear
3:35 AM 39.2 °F 35.6 °F 87% 30.27 in 10.0 mi Calm Calm - N/A   Clear
3:55 AM 39.2 °F 35.8 °F 88% 30.28 in 10.0 mi Calm Calm - N/A   Clear
4:15 AM 38.5 °F 35.4 °F 89% 30.29 in 10.0 mi Calm Calm - N/A   Clear
4:35 AM 38.1 °F 35.2 °F 89% 30.29 in 10.0 mi Calm Calm - N/A   Clear
4:55 AM 37.9 °F 34.9 °F 89% 30.30 in 10.0 mi Calm Calm - N/A   Clear
5:15 AM 38.3 °F 35.1 °F 88% 30.31 in 10.0 mi Calm Calm - N/A   Clear
5:35 AM 37.2 °F 34.7 °F 91% 30.32 in 10.0 mi Calm Calm - N/A   Clear
5:55 AM 36.9 °F 34.5 °F 91% 30.33 in 10.0 mi Calm Calm - N/A   Clear
6:15 AM 36.9 °F 34.3 °F 91% 30.33 in 10.0 mi Calm Calm - N/A   Clear
6:35 AM 36.7 °F 34.2 °F 91% 30.34 in 10.0 mi Calm Calm - N/A   Clear
6:55 AM 36.1 °F 34.0 °F 92% 30.34 in 10.0 mi Calm Calm - N/A   Clear
7:15 AM 35.8 °F 33.6 °F 92% 30.36 in 10.0 mi Calm Calm - N/A   Clear
7:35 AM 35.4 °F 33.4 °F 92% 30.36 in 10.0 mi Calm Calm - N/A   Clear
7:55 AM 36.5 °F 33.8 °F 90% 30.37 in 10.0 mi Calm Calm - N/A   Clear
8:15 AM 37.8 °F 35.2 °F 91% 30.38 in 10.0 mi Calm Calm - N/A   Clear
8:35 AM 40.6 °F 37.2 °F 88% 30.39 in 10.0 mi Calm Calm - N/A   Clear
8:55 AM 43.3 °F 37.0 °F 78% 30.40 in 10.0 mi Calm Calm - N/A   Clear
9:15 AM 44.8 °F 37.4 °F 75% 30.41 in 10.0 mi Calm Calm - N/A   Clear
9:35 AM 46.8 °F 37.8 °F 71% 30.41 in 10.0 mi Calm Calm - N/A   Clear
9:55 AM 48.2 °F 36.9 °F 65% 30.42 in 10.0 mi NW 3.5 mph - N/A   Clear
10:15 AM 50.0 °F 37.2 °F 62% 30.42 in 10.0 mi WNW 4.6 mph - N/A   Clear
10:55 AM 52.9 °F 37.6 °F 56% 30.43 in 10.0 mi NW 5.8 mph - N/A   Clear
11:15 AM 54.7 °F 36.0 °F 49% 30.43 in 10.0 mi NW 6.9 mph - N/A   Clear
11:35 AM 55.6 °F 35.4 °F 47% 30.44 in 10.0 mi North 3.5 mph - N/A   Clear
11:55 AM 55.6 °F 35.6 °F 47% 30.43 in 10.0 mi Calm Calm - N/A   Clear
12:15 PM 56.7 °F 34.9 °F 44% 30.42 in 10.0 mi West 3.5 mph - N/A   Clear
12:35 PM 57.4 °F 34.9 °F 43% 30.42 in 10.0 mi NNE 5.8 mph - N/A   Clear
12:55 PM 58.1 °F 33.6 °F 40% 30.41 in 10.0 mi NW 5.8 mph - N/A   Clear
1:15 PM 58.8 °F 32.0 °F 36% 30.40 in 10.0 mi WNW 3.5 mph - N/A   Clear
1:35 PM 59.4 °F 32.5 °F 36% 30.39 in 10.0 mi Calm Calm - N/A   Clear
1:55 PM 59.2 °F 30.6 °F 34% 30.39 in 10.0 mi NW 3.5 mph - N/A   Clear
2:15 PM 60.1 °F 31.6 °F 34% 30.38 in 10.0 mi NNW 6.9 mph - N/A   Clear
2:35 PM 60.4 °F 30.0 °F 32% 30.37 in 10.0 mi NNW 3.5 mph - N/A   Clear
2:55 PM 61.0 °F 31.1 °F 32% 30.37 in 10.0 mi Calm Calm - N/A   Clear
3:15 PM 60.8 °F 29.7 °F 31% 30.36 in 10.0 mi NW 3.5 mph - N/A   Clear
3:35 PM 61.2 °F 30.2 °F 31% 30.37 in 10.0 mi NNW 3.5 mph - N/A   Clear
3:55 PM 60.8 °F 31.3 °F 33% 30.36 in 10.0 mi Calm Calm - N/A   Clear
4:15 PM 61.0 °F 30.2 °F 31% 30.37 in 10.0 mi Calm Calm - N/A   Clear
4:35 PM 61.7 °F 30.4 °F 31% 30.37 in 10.0 mi WNW 3.5 mph - N/A   Clear
4:55 PM 60.8 °F 29.3 °F 30% 30.37 in 10.0 mi Calm Calm - N/A   Clear
5:15 PM 60.4 °F 30.2 °F 32% 30.37 in 10.0 mi Calm Calm - N/A   Clear
5:35 PM 60.4 °F 29.8 °F 31% 30.37 in 10.0 mi Calm Calm - N/A   Clear
5:55 PM 59.2 °F 31.6 °F 35% 30.37 in 10.0 mi Calm Calm - N/A   Clear
6:15 PM 57.9 °F 33.1 °F 39% 30.37 in 10.0 mi Calm Calm - N/A   Clear
6:35 PM 54.7 °F 37.8 °F 53% 30.38 in 10.0 mi Calm Calm - N/A   Clear
6:55 PM 51.8 °F 37.9 °F 59% 30.38 in 10.0 mi Calm Calm - N/A   Clear
7:15 PM 50.7 °F 37.4 °F 60% 30.38 in 10.0 mi Calm Calm - N/A   Clear
7:35 PM 48.2 °F 38.1 °F 68% 30.38 in 10.0 mi Calm Calm - N/A   Clear
7:55 PM 46.9 °F 37.8 °F 70% 30.38 in 10.0 mi Calm Calm - N/A   Clear
8:15 PM 45.5 °F 37.8 °F 74% 30.39 in 10.0 mi Calm Calm - N/A   Clear
8:35 PM 44.6 °F 37.8 °F 77% 30.39 in 10.0 mi Calm Calm - N/A   Clear
8:55 PM 43.5 °F 37.4 °F 79% 30.39 in 10.0 mi Calm Calm - N/A   Clear
9:15 PM 43.0 °F 36.7 °F 78% 30.39 in 10.0 mi Calm Calm - N/A   Clear
9:35 PM 42.8 °F 36.7 °F 79% 30.40 in 10.0 mi Calm Calm - N/A   Clear
9:55 PM 42.1 °F 36.5 °F 81% 30.40 in 10.0 mi Calm Calm - N/A   Clear
10:15 PM 41.4 °F 36.5 °F 83% 30.40 in 10.0 mi Calm Calm - N/A   Clear
10:35 PM 40.6 °F 36.3 °F 85% 30.41 in 10.0 mi Calm Calm - N/A   Clear
10:55 PM 39.9 °F 35.6 °F 85% 30.41 in 10.0 mi Calm Calm - N/A   Clear
11:15 PM 40.1 °F 35.8 °F 85% 30.41 in 10.0 mi Calm Calm - N/A   Clear
11:35 PM 39.2 °F 35.6 °F 87% 30.41 in 10.0 mi Calm Calm - N/A   Clear
11:55 PM 39.9 °F 36.0 °F 86% 30.41 in 10.0 mi Calm Calm - N/A   Clear